This is the latest recevied weather packets stored in our database for station/object N8HON. If no packets are shown the sender has not sent any weather packets the latest 10 day(s).
| Time | Temp. | Humidity | Pressure | Rain* | Wind** | Luminosity | Snow |
|---|---|---|---|---|---|---|---|
| 1777540214 | 10.56° C | 77% | 1007.4 hPa | 0 mm | - | 0 W/m² | - |
| 1777539909 | 10.56° C | 78% | 1007.5 hPa | 0 mm | - | 0 W/m² | - |
| 1777539606 | 10.56° C | 74% | 1007.7 hPa | 0 mm | - | 0 W/m² | - |
| 1777539302 | 10.56° C | 77% | 1007.6 hPa | 0 mm | - | 0 W/m² | - |
| 1777538999 | 10.56° C | 78% | 1007.5 hPa | 0 mm | - | 0 W/m² | - |
| 1777538695 | 10.56° C | 78% | 1007.7 hPa | 0 mm | - | 0 W/m² | - |
| 1777538390 | 10.56° C | 81% | 1008 hPa | 0 mm | - | 0 W/m² | - |
| 1777538087 | 10.56° C | 79% | 1007.8 hPa | 0 mm | - | 0 W/m² | - |
| 1777537781 | 10.56° C | 79% | 1008 hPa | 0 mm | - | 0 W/m² | - |
| 1777537479 | 11.11° C | 79% | 1007.9 hPa | 0 mm | - | 0 W/m² | - |
| 1777537174 | 11.11° C | 81% | 1008 hPa | 0 mm | - | 0 W/m² | - |
| 1777536870 | 11.11° C | 77% | 1008 hPa | 0 mm | - | 0 W/m² | - |
| 1777536569 | 11.11° C | 77% | 1007.9 hPa | 0 mm | - | 0 W/m² | - |
| 1777536265 | 11.11° C | 77% | 1007.8 hPa | 0 mm | - | 0 W/m² | - |
| 1777535960 | 11.11° C | 78% | 1007.7 hPa | 0 mm | - | 0 W/m² | - |
| 1777535656 | 11.11° C | 79% | 1007.7 hPa | 0 mm | - | 0 W/m² | - |
| 1777535354 | 11.11° C | 78% | 1007.7 hPa | 0 mm | - | 0 W/m² | - |
| 1777535051 | 11.11° C | 81% | 1007.8 hPa | 0 mm | - | 0 W/m² | - |
| 1777534748 | 11.11° C | 82% | 1007.8 hPa | 0 mm | - | 0 W/m² | - |
| 1777534445 | 11.67° C | 77% | 1007.9 hPa | 0 mm | - | 0 W/m² | - |
| 1777534142 | 11.11° C | 81% | 1007.6 hPa | 0 mm | - | 0 W/m² | - |
| 1777533839 | 11.67° C | 78% | 1007.9 hPa | 0 mm | - | 0 W/m² | - |
| 1777533536 | 11.11° C | 78% | 1007.7 hPa | 0 mm | - | 0 W/m² | - |
| 1777533232 | 11.11° C | 82% | 1007.6 hPa | 0 mm | - | 0 W/m² | - |
| 1777532929 | 11.11° C | 79% | 1007.8 hPa | 0 mm | - | 0 W/m² | - |
* Rain latest hour (hover to see other rain measurements)
** Current wind speed in m/s (hover to see current wind gust speed)